Location: Unspecified
(52.0406°N, 0.0000°E)
Time: 09:50:21
(UTC+00:00)

Sep Motor Cover - Visible Passes

Search period start: 04 April 2026 00:00
Search period end: 14 April 2026 00:00
Orbit: 837 x 1143 km, 71.0° (Epoch: 29 March)

Date Brightness Start Highest point End Pass type
(mag) Time Alt. Az. Time Alt. Az. Time Alt. Az.
4 Apr ? 04:48:53 10° SE 04:53:14 18° E 04:57:24 10° ENE visible
6 Apr ? 04:04:10 10° ESE 04:06:37 12° E 04:09:02 10° ENE visible
7 Apr ? 04:31:02 10° SSE 04:36:09 24° ESE 04:41:00 10° NE visible
9 Apr ? 03:45:35 10° SE 03:49:28 17° E 03:53:13 10° ENE visible
10 Apr ? 04:13:28 10° SSE 04:19:07 31° ESE 04:24:25 10° NE visible
11 Apr ? 03:01:29 10° ESE 03:02:52 11° E 03:04:14 10° E visible
12 Apr ? 03:27:36 10° SSE 03:32:22 22° E 03:36:54 10° NE visible
13 Apr ? 03:56:06 10° S 04:02:06 39° ESE 04:07:43 10° NE visible
